Theta_e
333 332 339 338 334 332 333 330 328 331 334 333 333 333 332 332 334 335 336 337 337 336 336 337 335 337 339 334 333 328 325 325 324 324 323 318 316 314 316 325 326 322 330
331 334 341 338 335 333 332 330 328 327 329 332 333 333 334 334 334 334 335 335 335 335 336 336 337 338 338 336 336 335 331 328 326 325 325 321 317 315 316 320 327 328 329
333 336 340 336 334 332 332 330 328 329 329 328 328 328 327 326 325 326 329 332 334 334 335 335 337 337 337 338 337 336 335 332 330 328 326 323 320 316 314 318 326 330 329
333 336 337 335 334 332 332 331 330 329 330 330 329 328 327 326 326 325 323 321 319 319 322 329 334 335 336 337 337 337 336 335 333 331 328 326 325 321 317 322 323 329 330
335 334 335 335 334 332 331 331 331 331 331 331 330 330 329 329 329 328 328 327 325 323 321 319 318 320 328 334 336 336 336 336 336 335 330 329 327 325 321 330 329 329 329
335 336 335 335 335 332 331 331 331 331 331 330 330 330 329 329 328 327 326 325 324 323 322 321 320 319 317 316 318 329 334 334 335 335 334 333 331 330 327 322 328 330 330
335 335 334 334 336 334 331 331 331 331 331 330 330 330 330 328 326 324 323 324 324 327 326 325 324 322 318 316 317 317 317 322 330 332 333 333 332 331 330 327 324 325 329
334 334 335 333 335 335 335 333 333 332 331 330 329 329 330 330 330 331 331 332 332 333 333 333 333 333 332 332 329 323 318 317 317 319 320 320 321 321 321 323 326 325 324
334 333 334 334 335 334 334 333 332 331 331 331 331 331 332 332 332 332 332 331 331 331 332 331 331 332 332 332 332 332 331 328 324 321 319 321 323 325 325 322 319 319 322
333 334 334 336 335 333 332 332 332 332 332 332 332 332 332 332 331 330 329 327 325 323 322 324 324 324 326 328 329 329 330 330 330 331 327 324 319 317 320 324 326 324 319
333 334 336 333 332 331 331 331 330 330 330 330 329 326 323 320 316 311 308 307 306 306 306 306 305 305 305 305 306 306 310 319 326 328 329 330 330 327 323 317 319 323 324
330 331 332 331 331 329 327 325 322 319 316 312 309 307 307 307 306 306 305 305 304 304 304 304 304 304 304 304 304 304 304 304 304 305 311 321 327 328 329 328 325 319 322
330 330 329 329 326 320 314 311 309 308 306 306 306 305 305 304 303 303 304 304 304 304 304 304 304 304 304 304 303 303 303 303 303 303 304 304 305 317 322 328 328 327 325
329 329 327 324 314 310 307 305 304 303 303 303 303 303 303 304 304 304 304 304 304 304 303 302 302 302 302 302 302 302 302 303 303 303 303 303 303 304 304 315 326 328 328
328 327 324 314 310 307 304 303 303 303 303 303 303 304 304 304 304 304 304 303 302 302 302 302 302 302 302 302 303 303 303 304 303 303 303 303 303 303 303 304 305 317 326
326 324 315 311 308 306 304 303 303 303 303 303 304 304 304 304 304 304 303 301 301 301 301 301 302 302 302 302 302 302 302 303 303 304 305 305 304 304 303 303 303 307 310
322 316 313 310 307 306 305 303 303 303 303 303 303 304 304 304 304 303 301 301 301 301 301 301 302 303 304 304 304 304 304 304 304 304 303 304 305 305 305 305 304 303 303
317 314 312 309 308 306 305 303 303 303 303 303 303 304 304 304 302 300 301 301 301 301 302 304 304 304 304 304 305 305 305 305 305 304 305 304 304 305 305 305 305 305 304
315 313 312 309 308 306 305 303 303 303 303 303 303 304 304 302 300 301 300 300 302 303 304 304 304 303 304 304 305 305 305 305 305 304 304 304 304 304 304 304 305 305 305
314 311 311 309 308 306 305 304 303 303 303 303 303 304 302 300 300 300 300 302 303 304 303 303 302 302 303 304 305 305 305 305 304 304 303 303 304 304 304 304 304 304 304
312 310 310 309 307 306 305 304 303 303 303 303 303 303 300 300 300 300 302 303 303 303 302 301 302 303 304 304 304 305 305 303 303 303 303 303 303 304 305 305 305 305 305
310 310 309 308 307 306 305 304 304 304 303 303 303 301 300 300 300 301 303 303 303 302 301 301 302 303 303 302 301 300 300 301 302 302 302 301 301 302 302 304 304 305 305
309 309 309 307 307 306 305 304 304 303 302 303 302 300 299 300 301 302 303 302 301 300 301 303 303 302 301 301 299 297 296 296 294 300 300 300 299 300 300 300 300 301 301
308 309 308 306 306 305 304 303 304 303 303 303 300 299 300 300 301 302 302 300 299 301 303 303 302 301 300 300 299 295 293 292 293 293 297 298 297 297 298 298 298 298 298
307 308 306 305 306 305 304 304 304 303 303 301 299 300 300 301 302 302 300 299 301 303 303 302 301 300 300 298 297 294 293 293 293 292 293 294 295 296 296 296 297 296 295
306 306 305 305 305 305 304 304 304 303 302 300 300 300 300 301 302 300 298 301 302 302 302 302 301 300 299 298 298 296 295 293 292 292 292 292 292 293 293 293 293 293 293
Wind_Speed
17 19 17 14 13 13 12 12 11 11 11 11 10 9 7 6 7 8 8 7 6 6 4 3 4 6 7 6 5 4 2 1 1 3 4 5 4 3 1 2 3 5 5
19 21 18 14 13 13 13 14 13 12 11 10 10 9 8 8 7 6 6 6 6 6 5 5 5 5 7 7 5 5 4 3 3 3 4 4 4 4 3 4 4 6 6
19 21 18 14 13 13 14 14 13 11 11 10 10 9 8 8 6 5 5 3 2 2 2 4 5 6 7 8 6 6 7 7 6 7 6 6 5 5 5 5 6 7 8
17 19 18 15 13 13 14 14 13 12 11 10 10 8 7 5 4 4 3 2 2 1 2 2 3 5 7 8 8 8 9 10 10 9 9 8 7 8 7 5 7 9 11
14 16 16 15 14 13 13 14 13 11 10 10 8 7 6 6 5 4 4 3 3 3 4 5 5 6 6 8 9 10 10 11 12 12 11 10 9 8 8 8 9 11 13
13 12 14 15 14 12 13 12 12 11 10 9 8 7 7 7 7 6 5 5 5 5 5 6 7 8 8 10 11 12 12 12 14 14 15 14 13 12 11 11 13 14 16
18 16 15 17 15 13 12 12 11 11 10 9 7 6 7 7 7 7 7 7 7 6 6 6 7 8 9 10 12 13 15 16 17 17 17 17 17 16 15 16 16 18 19
19 20 19 18 16 15 14 13 12 11 10 10 9 9 7 8 8 7 8 8 8 9 8 9 9 10 11 12 13 14 15 17 19 21 22 22 23 22 23 22 21 21 22
18 18 20 20 18 16 14 12 11 10 10 9 9 9 9 9 8 9 9 9 10 11 12 13 14 15 14 16 17 18 18 19 20 22 23 24 23 23 23 24 25 25 26
22 20 20 19 18 15 14 12 11 10 9 9 9 8 8 8 8 8 8 8 8 8 10 11 13 14 17 19 21 22 22 23 24 24 25 25 25 26 26 26 27 27 28
20 19 19 19 17 15 13 12 11 10 10 9 8 8 7 6 7 7 7 8 9 10 12 14 15 17 18 19 20 21 22 25 27 27 28 28 27 27 27 28 29 29 29
22 22 21 18 17 15 14 12 11 11 10 10 10 9 9 8 9 9 10 12 13 15 17 18 20 21 23 24 25 25 27 28 29 29 30 31 31 31 31 29 29 30 32
26 24 20 18 17 14 13 12 12 12 12 12 11 11 10 10 10 10 11 12 15 17 19 21 23 24 26 27 28 28 29 30 31 32 33 33 33 34 35 33 32 32 32
24 22 21 20 18 15 13 12 12 12 12 11 11 10 8 8 9 11 13 15 18 20 21 23 23 24 25 25 27 28 29 30 32 34 35 34 35 36 37 35 35 33 33
25 24 24 22 19 15 13 12 12 12 11 11 10 9 9 10 11 13 15 17 19 21 22 22 23 23 24 25 26 27 28 30 31 33 34 34 35 37 38 39 39 37 38
27 26 25 22 19 16 13 12 12 12 12 11 10 10 10 11 12 14 17 19 20 20 21 22 23 23 24 25 26 27 28 28 29 30 31 32 32 33 36 38 40 40 41
29 27 26 23 20 16 14 13 13 13 13 12 11 11 11 12 14 17 18 18 19 20 21 22 22 23 24 26 27 27 29 29 30 30 30 31 30 30 30 33 37 40 42
31 30 28 25 21 18 15 14 14 15 14 13 13 13 13 14 16 17 18 18 19 20 21 21 23 24 26 29 30 30 30 31 30 29 28 28 29 29 29 29 31 35 40
34 32 30 27 24 21 18 17 16 16 15 14 14 13 13 15 16 17 17 18 18 18 20 21 23 26 28 31 33 33 32 31 29 26 24 23 24 25 27 27 28 31 34
36 34 32 29 27 24 21 19 19 18 17 15 14 13 14 14 16 16 17 16 16 18 20 22 24 26 30 33 34 33 29 26 19 16 14 15 16 17 18 20 22 24 28
39 38 37 34 31 29 25 22 21 19 17 16 14 14 14 15 15 15 15 15 17 19 21 24 27 28 29 31 32 32 23 13 13 8 8 13 14 13 14 15 18 21 24
44 42 40 38 35 31 24 21 21 18 18 16 14 14 14 15 14 13 14 16 18 20 22 24 26 27 27 25 24 22 13 13 3 18 6 12 14 16 17 20 22 23 25
47 46 43 41 39 32 28 25 23 19 18 16 14 14 13 13 13 13 15 17 19 21 22 24 25 24 22 19 18 12 8 6 27 2 20 8 18 18 20 24 27 29 31
48 45 43 42 39 35 29 26 23 19 18 16 14 12 12 12 12 13 15 17 19 21 22 22 21 19 19 18 15 9 7 11 7 13 15 26 20 31 30 28 27 25 24
46 45 43 42 41 37 32 27 24 21 20 17 13 11 11 11 11 13 15 17 18 20 20 17 15 14 13 13 12 12 13 12 11 11 24 21 35 34 33 33 30 28 24
44 44 44 44 43 38 33 29 25 23 20 16 12 11 10 10 11 13 14 16 17 17 15 13 13 11 11 11 13 12 11 11 13 13 24 34 36 34 37 28 30 29 26
Wind_Direction
170 164 161 166 162 167 168 162 159 155 153 153 162 165 171 167 157 156 160 166 171 178 182 178 176 181 183 187 200 204 182 192 332 359 3 351 342 343 268 175 174 178 175
169 164 163 166 164 166 171 166 160 157 157 157 156 157 155 153 157 159 154 151 157 163 163 160 154 183 196 214 229 220 233 252 285 303 324 326 318 317 293 236 205 209 196
169 163 163 167 165 165 168 166 162 159 158 158 158 157 153 151 151 151 152 158 139 135 159 170 181 201 218 237 235 246 251 258 270 287 296 304 305 307 299 259 228 221 211
165 165 167 167 169 166 167 168 171 170 168 166 164 163 160 161 157 154 160 178 182 214 241 250 240 236 243 242 248 256 259 261 268 279 283 293 301 305 297 275 251 231 229
159 167 168 169 168 168 169 168 171 172 171 176 173 175 180 186 197 204 219 233 247 261 272 273 272 266 262 262 258 263 264 265 269 274 276 282 286 292 287 273 269 247 241
163 174 178 172 170 172 174 177 177 179 182 183 185 190 195 202 212 221 235 248 261 266 266 267 271 273 268 266 264 263 269 271 271 273 273 275 276 281 279 268 264 259 251
174 181 188 178 172 176 180 181 184 188 192 196 199 207 220 225 230 234 238 236 239 248 258 264 267 267 267 265 265 264 263 265 268 268 267 268 269 270 269 267 268 264 260
186 182 187 180 178 178 181 183 185 189 197 205 214 221 232 245 245 246 253 259 261 261 264 267 270 276 279 277 272 270 267 265 265 267 269 268 269 269 269 266 263 264 263
184 189 185 183 187 188 190 194 197 201 207 214 220 227 230 243 251 253 257 263 267 267 267 265 270 269 273 272 274 273 274 273 272 270 266 265 264 265 266 266 265 262 264
192 193 186 188 192 190 192 194 199 205 213 218 225 232 237 239 248 256 262 268 274 277 278 280 282 286 283 282 282 282 282 280 281 281 279 278 278 275 271 269 270 271 265
196 192 193 190 192 192 191 194 199 208 217 222 225 224 223 229 238 251 263 274 280 284 286 287 287 287 287 285 285 284 283 278 276 274 274 277 278 277 275 271 268 269 269
204 192 188 190 193 191 189 192 199 205 210 214 219 225 231 239 249 260 271 278 283 288 290 291 292 291 290 289 287 286 284 283 282 280 277 272 269 272 274 273 272 267 266
196 188 185 186 186 188 197 205 211 216 221 222 224 228 236 245 256 267 279 288 291 292 291 290 289 289 288 287 286 286 284 283 281 280 278 278 276 270 270 270 272 270 267
192 189 187 189 192 200 209 217 223 223 223 223 222 223 230 244 260 274 284 289 292 292 291 290 289 289 289 289 288 287 286 285 282 281 279 277 275 275 276 270 265 266 267
194 195 195 196 198 204 208 215 219 218 216 215 218 227 242 260 275 285 291 295 298 299 299 298 297 295 295 293 291 290 290 289 287 286 284 280 276 274 273 274 273 270 266
203 201 199 199 201 202 209 216 219 218 216 218 225 239 255 270 280 290 298 303 307 308 306 305 304 302 301 300 300 300 298 296 294 293 291 287 283 277 272 270 269 268 268
208 206 205 203 203 206 212 217 218 219 220 226 237 251 264 276 289 299 304 309 311 310 308 307 306 309 311 308 308 308 306 304 301 297 294 293 290 284 278 273 269 267 267
213 210 207 208 209 209 214 217 219 221 226 233 244 255 268 283 297 304 309 312 312 312 312 315 316 316 315 312 310 309 307 304 304 302 299 293 289 286 282 276 273 270 268
218 215 213 213 213 212 214 218 219 222 229 236 246 260 277 292 302 307 310 312 314 316 317 317 317 317 318 316 315 314 313 311 308 305 301 296 293 290 287 282 275 271 270
219 218 218 216 213 212 214 216 219 224 230 237 248 263 279 293 303 307 310 313 316 317 316 317 319 321 323 319 317 315 320 315 313 311 313 314 310 305 299 292 287 281 276
218 218 218 216 214 214 215 218 220 225 231 238 249 267 284 298 303 307 311 314 316 316 319 321 324 323 321 320 324 326 336 332 328 337 330 324 317 319 316 301 293 289 287
219 217 217 218 218 217 220 225 224 229 230 236 251 269 286 294 299 304 309 312 315 319 322 323 322 324 325 330 334 338 336 337 328 322 318 320 310 306 300 295 296 295 291
216 215 215 217 216 216 217 218 221 225 225 233 250 270 282 290 297 303 309 314 318 320 323 323 324 323 327 330 336 344 340 327 332 264 317 350 316 309 313 305 300 297 293
214 212 214 213 213 214 218 220 224 230 226 234 249 266 279 287 294 303 310 316 321 325 325 324 321 324 327 326 328 327 306 299 330 319 308 327 332 334 336 331 328 324 320
211 210 211 209 210 213 217 219 222 222 224 233 245 262 272 280 292 304 315 323 326 326 324 322 325 326 323 318 317 323 323 319 316 291 307 315 326 331 332 329 330 331 327
208 208 207 207 208 211 214 217 220 220 224 230 244 259 266 279 296 310 322 327 331 330 329 335 335 331 328 325 333 334 322 314 308 303 301 313 318 327 326 334 335 331 327